{"data":{"norad_id":50825,"intl_designator":"2022-001Y","name":"STARLINK-3332","alt_names":[],"object_type":"PAYLOAD","status":"ACTIVE","operator":null,"country":"US","launch_date":"2022-01-06","launch_site_code":"AFETR","launch_vehicle":null,"mission":null,"orbit_class":"UNKNOWN","rcs_meters":null,"size_class":null,"mass_kg":null,"dimensions":null,"purposes":["comms"],"wikipedia_slug":null,"has_3d_model":false,"image_url":null,"decayed_at":null,"tle_current":{"epoch":"2026-05-24T12:36:45.579456Z","epoch_age_seconds":112153,"freshness":"FRESH","line1":"1 50825U 22001Y   26144.52552754 -.00000002  00000+0  17973-4 0  9990","line2":"2 50825  53.2147 188.6798 0001171  85.8958 274.2168 15.08840779241853","mean_motion":15.08840779,"eccentricity":0.0001171,"inclination_deg":53.2147,"raan_deg":188.6798,"arg_perigee_deg":85.8958,"mean_anomaly_deg":274.2168,"bstar":1.7973e-5,"rev_number":24185,"period_min":95.437505404273,"perigee_km":538.93092435905,"apogee_km":540.55109138849,"semimajor_km":6917.8780078738,"source":"CELESTRAK","updated_at":"2026-05-25T13:38:16.878492Z"}}}